RH
50 50 49 54 56 53 49 50 59 63 62 62 58 54 53 53 51 43 39 35 27 24
46 50 50 55 53 51 51 50 52 51 62 61 61 58 57 56 54 51 48 39 33 32
42 48 50 48 49 49 51 53 50 48 50 52 59 60 58 53 46 41 39 36 35 36
47 49 51 52 52 54 53 55 57 55 54 52 50 47 46 43 42 42 40 41 39 37
55 58 59 60 60 60 60 59 59 59 57 56 54 51 49 47 47 46 48 48 41 40
59 62 66 68 70 69 68 66 63 61 59 57 56 56 54 53 52 51 50 50 47 43
45 52 58 61 67 71 74 75 72 69 68 65 62 62 62 61 66 66 62 56 53 50
44 42 42 44 47 53 58 63 67 72 72 72 72 72 74 77 77 76 79 77 72 63
36 43 41 35 33 33 37 38 43 54 67 77 79 81 83 83 83 84 87 90 89 84
39 37 35 33 37 37 36 36 37 38 41 45 54 75 89 92 92 92 95 96 97 97
36 38 47 40 37 39 36 37 34 33 34 34 39 44 44 62 89 96 97 97 97 94
51 52 38 34 32 32 31 35 33 34 31 32 32 37 41 37 44 52 75 95 97 97
47 37 33 31 31 29 27 25 24 26 29 28 32 30 29 36 35 39 41 43 59 75
46 33 32 31 26 23 23 25 22 20 19 21 25 24 26 25 26 30 31 35 35 37